Weather History for Carmi, IL

Change the Weather History Date:

Friday, May 10, 2013

  Actual Average (KEVV) Record (KEVV)
Temperature  
Mean Temperature 68 °F 64 °F  
Max Temperature 75 °F 75 °F 88 °F (1979)
Min Temperature 59 °F 53 °F 31 °F (1966)
Degree Days  
Heating Degree Days 0 4  
Month to date heating degree days 43  
Since 1 July heating degree days 4498  
Cooling Degree Days 2 2  
Month to date cooling degree days 17  
Year to date cooling degree days 44  
Growing Degree Days 18 (Base 50)    
Moisture  
Dew Point 61 °F    
Average Humidity 80    
Maximum Humidity 93    
Minimum Humidity 66    
Precipitation  
Precipitation 0.49 in 0.17 in 1.96 in (1970)
Month to date precipitation 1.72  
Year to date precipitation 16.60  
Snow  
Snow 0.00 in 0.00 in 0.00 in (2002)
Month to date snowfall 0.0  
Since 1 July snowfall 11.8  
Snow Depth -    
Sea Level Pressure  
Sea Level Pressure 29.89 in    
Wind  
Wind Speed 7 mph (West)    
Max Wind Speed 18 mph    
Max Gust Speed 22 mph    
Visibility 9 miles    
Events Rain , Thunderstorm    
T = Trace of Precipitation, MM = Missing Value Source: NWS Daily Summary

Daily Weather History Graph

Daily Weather History Graph

Search for Another Location

Airport:

Trip Planner

Search our weather history database for the weather conditions in past years. The results will help you decide how hot, cold, wet, or windy it might be!

Date:

Astronomy

May. 10, 2013 Rise Set
Actual Time 5:46 AM CDT 7:52 PM CDT
Civil Twilight 5:17 AM CDT 8:21 PM CDT
Nautical Twilight 4:41 AM CDT 8:57 PM CDT
Astronomical Twilight 4:02 AM CDT 9:35 PM CDT
Moon 6:10 AM CDT (5/10) 8:40 PM CDT (5/10)
Length of Visible Light 15h 04m
Length of Day
14h 05m
New Moon, 0% of the Moon is Illuminated
May 10
New Moon
May 17
First Quarter
May 24
Full
May 31
Last Quarter
Jun 8
New

Hourly Weather History & Observations

Time (CDT) Temp. Dew Point Humidity Pressure Visibility Wind Dir Wind Speed Gust Speed Precip Events Conditions
12:35 AM 68.2 °F 60.1 °F 75% 29.92 in 10.0 mi SSW 9.2 mph - N/A   Clear
12:55 AM 69.8 °F 60.3 °F 72% 29.92 in 10.0 mi SSW 9.2 mph - N/A   Clear
1:15 AM 69.8 °F 60.3 °F 72% 29.91 in 10.0 mi SSW 9.2 mph - N/A   Clear
1:35 AM 69.4 °F 60.3 °F 73% 29.90 in 10.0 mi SSW 10.4 mph - N/A   Clear
1:55 AM 69.6 °F 60.6 °F 73% 29.89 in 10.0 mi SSW 9.2 mph - N/A   Clear
2:15 AM 69.4 °F 60.8 °F 74% 29.88 in 10.0 mi SSW 9.2 mph - N/A   Clear
2:35 AM 67.1 °F 61.0 °F 81% 29.89 in 10.0 mi SSW 5.8 mph - N/A   Clear
3:15 AM 65.8 °F 61.0 °F 84% 29.88 in 10.0 mi South 5.8 mph - N/A   Scattered Clouds
3:55 AM 66.2 °F 61.5 °F 85% 29.88 in 10.0 mi South 6.9 mph - N/A   Scattered Clouds
4:15 AM 65.8 °F 61.3 °F 85% 29.88 in 10.0 mi South 6.9 mph - N/A   Mostly Cloudy
4:55 AM 66.2 °F 61.7 °F 85% 29.87 in 10.0 mi SSW 4.6 mph - N/A   Mostly Cloudy
5:15 AM 66.2 °F 61.9 °F 86% 29.86 in 10.0 mi SW 4.6 mph - N/A   Scattered Clouds
5:35 AM 66.2 °F 62.1 °F 86% 29.86 in 10.0 mi South 6.9 mph - N/A   Scattered Clouds
5:55 AM 65.3 °F 61.9 °F 89% 29.87 in 10.0 mi South 8.1 mph - N/A   Mostly Cloudy
6:15 AM 65.8 °F 62.6 °F 89% 29.87 in 10.0 mi South 6.9 mph - N/A Rain Light Rain
6:35 AM 66.7 °F 62.6 °F 86% 29.87 in 10.0 mi SSW 5.8 mph - N/A Rain Light Rain
6:55 AM 66.9 °F 63.0 °F 87% 29.87 in 7.0 mi SW 9.2 mph - N/A   Light Drizzle
7:15 AM 67.1 °F 63.5 °F 88% 29.87 in 7.0 mi WSW 5.8 mph - N/A   Mostly Cloudy
7:35 AM 67.5 °F 63.5 °F 87% 29.87 in 7.0 mi WNW 5.8 mph - N/A   Scattered Clouds
7:55 AM 67.3 °F 63.5 °F 88% 29.88 in 10.0 mi Calm Calm - N/A   Scattered Clouds
8:15 AM 68.0 °F 63.7 °F 86% 29.88 in 7.0 mi Calm Calm - N/A   Mostly Cloudy
8:35 AM 68.0 °F 63.3 °F 85% 29.89 in 10.0 mi NW 3.5 mph - N/A   Mostly Cloudy
8:55 AM 68.2 °F 62.8 °F 83% 29.89 in 10.0 mi WNW 3.5 mph - N/A   Overcast
9:15 AM 68.5 °F 62.1 °F 80% 29.89 in 10.0 mi Calm Calm - N/A   Overcast
9:35 AM 69.1 °F 62.1 °F 78% 29.89 in 10.0 mi SSW 3.5 mph - N/A   Overcast
9:55 AM 68.4 °F 61.3 °F 78% 29.89 in 10.0 mi Calm Calm - N/A   Overcast
10:15 AM 68.0 °F 61.7 °F 80% 29.88 in 7.0 mi Calm Calm - N/A Rain Light Rain
10:35 AM 67.1 °F 62.4 °F 85% 29.89 in 5.0 mi West 4.6 mph - 0.04 in Rain Heavy Rain
10:55 AM 64.9 °F 62.8 °F 93% 29.89 in 2.0 mi WNW 6.9 mph - 0.23 in Rain Heavy Rain
11:15 AM 64.6 °F 62.6 °F 93% 29.89 in 5.0 mi WNW 6.9 mph - 0.11 in Rain Light Rain
11:35 AM 65.5 °F 63.3 °F 93% 29.90 in 5.0 mi West 3.5 mph - 0.13 in Rain Rain
12:18 PM 66.2 °F 62.6 °F 88% 29.89 in 10.0 mi Calm Calm - N/A   Mostly Cloudy
12:35 PM 67.5 °F 62.8 °F 85% 29.89 in 7.0 mi Calm Calm - N/A   Mostly Cloudy
12:55 PM 68.0 °F 63.0 °F 84% 29.87 in 10.0 mi Calm Calm - N/A   Overcast
1:35 PM 70.9 °F 64.8 °F 81% 29.86 in 10.0 mi West 3.5 mph - N/A   Mostly Cloudy
1:55 PM 71.6 °F 63.5 °F 76% 29.87 in 10.0 mi West 6.9 mph - N/A   Mostly Cloudy
2:15 PM 72.1 °F 62.8 °F 72% 29.87 in 10.0 mi West 4.6 mph - N/A   Mostly Cloudy
2:35 PM 73.9 °F 63.9 °F 71% 29.87 in 10.0 mi WNW 3.5 mph - N/A   Mostly Cloudy
2:55 PM 73.8 °F 64.6 °F 73% 29.86 in 10.0 mi Calm Calm - N/A   Mostly Cloudy
3:15 PM 73.9 °F 63.1 °F 69% 29.85 in 10.0 mi Calm Calm - N/A   Mostly Cloudy
3:35 PM 73.4 °F 61.3 °F 66% 29.85 in 10.0 mi Calm Calm - N/A   Scattered Clouds
3:55 PM 75.0 °F 63.1 °F 66% 29.85 in 10.0 mi West 9.2 mph - N/A   Mostly Cloudy
4:15 PM 73.4 °F 62.2 °F 68% 29.84 in 10.0 mi West 9.2 mph - N/A   Mostly Cloudy
4:35 PM 72.7 °F 62.4 °F 70% 29.84 in 10.0 mi West 8.1 mph - N/A   Mostly Cloudy
4:55 PM 72.1 °F 62.8 °F 72% 29.84 in 10.0 mi WSW 8.1 mph - N/A   Mostly Cloudy
5:15 PM 69.4 °F 64.2 °F 83% 29.85 in 4.0 mi WSW 9.2 mph - 0.08 in Rain Heavy Rain
5:35 PM 68.7 °F 64.4 °F 86% 29.85 in 10.0 mi West 6.9 mph - 0.13 in   Mostly Cloudy
5:55 PM 70.0 °F 64.2 °F 82% 29.86 in 10.0 mi NW 11.5 mph 16.1 mph 0.13 in Rain , Thunderstorm Light Thunderstorms and Rain
6:15 PM 71.1 °F 63.7 °F 77% 29.86 in 10.0 mi WNW 13.8 mph - N/A   Mostly Cloudy
6:35 PM 70.0 °F 61.9 °F 75% 29.86 in 10.0 mi NW 13.8 mph 18.4 mph N/A   Mostly Cloudy
6:55 PM 68.7 °F 60.6 °F 75% 29.86 in 10.0 mi NW 11.5 mph - N/A   Scattered Clouds
7:15 PM 68.0 °F 59.7 °F 75% 29.87 in 10.0 mi NW 9.2 mph - N/A   Scattered Clouds
7:35 PM 66.7 °F 60.1 °F 79% 29.88 in 10.0 mi NW 12.7 mph - N/A   Scattered Clouds
7:55 PM 66.2 °F 59.9 °F 80% 29.90 in 10.0 mi NW 15.0 mph 19.6 mph N/A   Mostly Cloudy
8:15 PM 65.7 °F 59.4 °F 80% 29.90 in 10.0 mi NW 17.3 mph 21.9 mph N/A   Overcast
8:35 PM 64.0 °F 58.3 °F 82% 29.91 in 10.0 mi NW 18.4 mph - N/A   Overcast
8:55 PM 62.6 °F 56.7 °F 81% 29.92 in 10.0 mi NNW 13.8 mph - N/A   Overcast
9:15 PM 62.1 °F 56.3 °F 81% 29.93 in 10.0 mi NNW 13.8 mph - N/A   Overcast
9:35 PM 61.5 °F 55.8 °F 81% 29.93 in 10.0 mi North 10.4 mph - N/A   Mostly Cloudy
9:55 PM 61.5 °F 55.6 °F 81% 29.95 in 10.0 mi NW 8.1 mph - N/A   Overcast
10:15 PM 61.0 °F 54.9 °F 80% 29.96 in 10.0 mi NW 11.5 mph - N/A   Overcast
10:35 PM 60.8 °F 54.7 °F 80% 29.96 in 10.0 mi NNW 8.1 mph - N/A   Overcast
10:55 PM 60.8 °F 53.8 °F 78% 29.96 in 10.0 mi NNW 9.2 mph - N/A   Overcast
11:15 PM 60.3 °F 54.1 °F 80% 29.97 in 10.0 mi NW 6.9 mph - N/A   Overcast
11:35 PM 60.1 °F 54.1 °F 81% 29.97 in 10.0 mi NW 5.8 mph - N/A   Overcast
11:55 PM 59.9 °F 54.1 °F 81% 29.97 in 10.0 mi NW 6.9 mph - N/A   Overcast